Weather History for Campo, CA

Change the Weather History Date:

Friday, September 6, 2013

  Actual Average Record
Temperature  
Mean Temperature 81 °F 72 °F  
Max Temperature 98 °F 93 °F 104 °F (1955)
Min Temperature 64 °F 51 °F 38 °F (1973)
Degree Days  
Heating Degree Days 0 1  
Month to date heating degree days 0 4  
Since 1 July heating degree days 2 18  
Cooling Degree Days 16 7  
Month to date cooling degree days 85 46  
Year to date cooling degree days 802 696  
Growing Degree Days 30 (Base 50)    
Moisture  
Dew Point 60 °F    
Average Humidity 57    
Maximum Humidity 90    
Minimum Humidity 24    
Precipitation  
Precipitation 1.00 in 0.01 in 1.00 in (2013)
Month to date precipitation 1.03 0.08  
Year to date precipitation 6.24 11.25  
Since 1 July precipitation 1.46 1.10  
Snow  
Snow 0.00 in - - ()
Month to date snowfall 0.0  
Year to date snowfall 0.0  
Since 1 July snowfall 0.0  
Snow Depth 0.00 in    
Sea Level Pressure  
Sea Level Pressure 29.85 in    
Wind  
Wind Speed 6 mph (NE)    
Max Wind Speed 29 mph    
Max Gust Speed 39 mph    
T = Trace of Precipitation, MM = Missing Value Source: NWS Daily Summary

Daily Weather History Graph

Daily Weather History Graph

Search for Another Location

Airport:

Trip Planner

Search our weather history database for the weather conditions in past years. The results will help you decide how hot, cold, wet, or windy it might be!

Date:

Astronomy

Sep. 06, 2013 Rise Set
Actual Time 6:24 AM PDT 7:03 PM PDT
Civil Twilight 5:59 AM PDT 7:28 PM PDT
Nautical Twilight 5:29 AM PDT 7:57 PM PDT
Astronomical Twilight 4:59 AM PDT 8:27 PM PDT
Moon 7:33 AM PDT (9/6) 7:39 PM PDT (9/6)
Length of Visible Light 13h 29m
Length of Day
12h 39m
New Moon, 2% of the Moon is Illuminated
Sep 6
New Moon
Sep 12
First Quarter
Sep 19
Full
Sep 26
Last Quarter
Oct 4
New

Hourly Weather History & Observations

Time (PDT) Temp. Heat Index Dew Point Humidity Pressure Visibility Wind Dir Wind Speed Gust Speed Precip Events Conditions
12:52 AM 66.9 °F - 61.0 °F 81% 29.86 in - NE 6.9 mph - N/A   Unknown
1:52 AM 66.0 °F - 60.1 °F 81% 29.86 in - NE 6.9 mph - N/A   Unknown
2:52 AM 66.0 °F - 59.0 °F 78% 29.84 in - NE 4.6 mph - N/A   Unknown
3:52 AM 66.0 °F - 59.0 °F 78% 29.84 in - ENE 5.8 mph - N/A   Unknown
4:52 AM 64.9 °F - 59.0 °F 81% 29.84 in - NE 5.8 mph - N/A   Unknown
5:52 AM 66.0 °F - 57.9 °F 75% 29.85 in - NE 4.6 mph - N/A   Unknown
6:52 AM 64.0 °F - 57.0 °F 78% 29.86 in - NE 4.6 mph - N/A   Unknown
7:52 AM 73.0 °F - 60.1 °F 64% 29.86 in - NE 4.6 mph - N/A   Unknown
8:52 AM 84.0 °F 83.5 °F 57.9 °F 41% 29.86 in - Calm Calm - N/A   Unknown
9:52 AM 91.0 °F 88.7 °F 54.0 °F 28% 29.85 in - Calm Calm - N/A   Unknown
10:52 AM 96.1 °F 93.8 °F 54.0 °F 24% 29.83 in - ESE 6.9 mph - N/A   Unknown
11:52 AM 93.9 °F 92.0 °F 55.0 °F 27% 29.82 in - Variable 5.8 mph - N/A   Unknown
12:52 PM 93.0 °F 91.1 °F 55.0 °F 28% 29.80 in - SSE 11.5 mph - N/A   Unknown
1:50 PM 75.2 °F - 60.8 °F 61% 29.98 in - NNE 21.9 mph 27.6 mph N/A   Unknown
1:52 PM 73.0 °F - 61.0 °F 66% 29.89 in - North 17.3 mph 27.6 mph N/A   Unknown
1:56 PM 71.6 °F - 60.8 °F 69% 29.96 in - North 23.0 mph 38.0 mph 0.20 in   Unknown
2:52 PM 70.0 °F - 66.0 °F 87% 29.90 in - East 6.9 mph - 0.98 in   Unknown
3:52 PM 72.0 °F - 64.9 °F 78% 29.84 in - NE 8.1 mph 19.6 mph 0.02 in   Unknown
4:52 PM 75.9 °F - 66.9 °F 74% 29.84 in - Calm Calm - N/A   Unknown
5:52 PM 80.1 °F 81.7 °F 64.0 °F 58% 29.82 in - Calm Calm - N/A   Unknown
6:52 PM 78.1 °F - 62.1 °F 58% 29.81 in - Calm Calm - N/A   Unknown
7:52 PM 71.1 °F - 63.0 °F 75% 29.81 in - ENE 4.6 mph - N/A   Unknown
8:52 PM 69.1 °F - 62.1 °F 78% 29.83 in - ENE 4.6 mph - N/A   Unknown
9:52 PM 66.9 °F - 61.0 °F 81% 29.84 in - ENE 5.8 mph - N/A   Unknown
10:52 PM 66.9 °F - 59.0 °F 76% 29.85 in - NE 6.9 mph - N/A   Unknown
11:52 PM 66.9 °F - 59.0 °F 76% 29.83 in - NW 4.6 mph - N/A   Unknown